This is the latest recevied weather packets stored in our database for station/object KS5S. If no packets are shown the sender has not sent any weather packets the latest 10 day(s).
| Time | Temp. | Humidity | Pressure | Rain* | Wind** | Luminosity | Snow |
|---|---|---|---|---|---|---|---|
| 1778020028 | 32.22° C | 56% | 1001.7 hPa | 0 mm | - | 237 W/m² | - |
| 1778019724 | 32.78° C | 58% | 1001.5 hPa | 0 mm | - | 464 W/m² | - |
| 1778019422 | 32.78° C | 59% | 1001.6 hPa | 0 mm | - | 338 W/m² | - |
| 1778019118 | 32.22° C | 58% | 1001.6 hPa | 0 mm | - | 452 W/m² | - |
| 1778018815 | 32.22° C | 59% | 1001.8 hPa | 0 mm | - | 522 W/m² | - |
| 1778018513 | 31.67° C | 58% | 1001.7 hPa | 0 mm | - | 343 W/m² | - |
| 1778018210 | 32.78° C | 58% | 1001.7 hPa | 0 mm | - | 286 W/m² | - |
| 1778017908 | 33.33° C | 58% | 1001.7 hPa | 0 mm | - | 597 W/m² | - |
| 1778017606 | 32.78° C | 57% | 1001.6 hPa | 0 mm | - | 656 W/m² | - |
| 1778017303 | 32.78° C | 58% | 1001.7 hPa | 0 mm | - | 527 W/m² | - |
| 1778017000 | 33.33° C | 55% | 1001.9 hPa | 0 mm | - | 526 W/m² | - |
| 1778016697 | 33.89° C | 56% | 1001.5 hPa | 0 mm | - | 615 W/m² | - |
| 1778016393 | 32.78° C | 57% | 1001.8 hPa | 0 mm | - | 688 W/m² | - |
| 1778016091 | 32.78° C | 55% | 1001.7 hPa | 0 mm | - | 551 W/m² | - |
| 1778015788 | 32.78° C | 56% | 1002 hPa | 0 mm | - | 672 W/m² | - |
| 1778015485 | 32.78° C | 54% | 1002.1 hPa | 0 mm | - | 685 W/m² | - |
| 1778015181 | 33.33° C | 53% | 1001.7 hPa | 0 mm | - | 662 W/m² | - |
| 1778014878 | 33.33° C | 55% | 1002.1 hPa | 0 mm | - | 648 W/m² | - |
| 1778014576 | 32.78° C | 54% | 1002.2 hPa | 0 mm | - | 811 W/m² | - |
| 1778014273 | 32.78° C | 56% | 1002.2 hPa | 0 mm | - | 652 W/m² | - |
| 1778013970 | 32.78° C | 55% | 1002.2 hPa | 0 mm | - | 648 W/m² | - |
| 1778013668 | 32.78° C | 58% | 1002.4 hPa | 0 mm | - | 902 W/m² | - |
| 1778013364 | 32.78° C | 57% | 1002.3 hPa | 0 mm | - | 777 W/m² | - |
| 1778013061 | 32.78° C | 57% | 1002.2 hPa | 0 mm | - | 581 W/m² | - |
| 1778012757 | 32.78° C | 58% | 1002.6 hPa | 0 mm | - | 786 W/m² | - |
* Rain latest hour (hover to see other rain measurements)
** Current wind speed in m/s (hover to see current wind gust speed)